Location: Lower Kingswood
(51.2667°N, 0.2167°W)
Time: 10:07:44
(UTC+00:00)

Cosmos 2082 Rocket - Pass Details

Date: 26 September 2023
Orbit: 834 x 852 km, 71.0° (Epoch: 09 December)

Event Time Altitude Azimuth Distance (km) Brightness Sun altitude
Exits shadow 04:25:50 16° 285° (WNW) 2,102 3.8 -14.2°
Maximum altitude 04:28:45 23° 323° (NW) 1,754 3.7 -13.8°
Drops below altitude 10° 04:33:13 10° 15° (NNE) 2,490 5.0 -13.1°
Sets 04:36:13 0° 30° (NNE) 3,427 6.1 -12.7°
